RH
92 97 94 97 97 97 98 97 93 84 83 75 75 53 21 8 6 6 6 9 12 20 26 31 35 33 34 22 29 52 37 31 29 30 41 33 25 27 23 28 36 34 30 33 31 36 34
94 96 92 96 96 97 97 97 92 86 87 85 74 26 6 4 4 5 5 6 13 25 30 35 38 30 39 17 46 51 34 33 30 40 43 36 31 31 28 28 30 34 39 35 36 34 36
92 94 94 95 96 97 97 96 96 96 90 82 66 29 6 4 4 4 5 8 23 34 35 37 33 35 27 31 45 40 36 39 41 42 39 49 43 32 37 38 44 46 37 29 32 35 34
83 94 95 96 97 96 96 96 97 96 93 80 57 28 8 4 3 3 6 22 31 39 36 35 36 33 26 42 44 43 42 46 47 48 52 55 47 41 36 42 36 35 38 24 30 41 39
94 96 96 95 95 95 95 96 96 96 88 66 47 17 6 5 7 16 31 28 40 40 36 36 45 36 33 44 43 47 45 42 50 54 56 54 47 46 45 33 24 30 21 26 22 35 38
97 96 96 95 95 95 96 95 96 96 94 65 18 10 7 10 28 30 28 32 41 49 45 40 34 24 31 41 46 46 48 46 44 44 42 49 47 37 39 28 20 17 21 25 27 28 37
86 97 95 96 96 95 95 96 95 84 78 52 14 15 11 19 37 28 27 22 25 25 31 31 32 29 33 42 41 46 48 43 41 34 29 47 32 24 22 29 28 24 26 26 23 24 30
76 89 95 95 95 96 96 84 69 51 37 18 26 35 14 26 37 29 33 50 68 68 29 40 47 41 42 40 34 38 44 35 35 32 44 35 28 29 38 39 40 38 34 29 27 31 37
85 88 96 95 95 96 94 94 82 47 6 7 25 36 23 27 40 41 68 84 76 71 29 32 40 38 37 37 38 37 41 42 38 39 38 28 25 39 38 36 38 32 31 22 26 30 32
89 96 95 96 97 96 94 89 70 38 12 8 30 32 22 28 39 58 70 66 74 74 25 30 37 39 37 37 39 47 45 43 43 40 42 37 41 41 40 35 30 23 23 29 36 34 29
87 95 95 97 97 96 90 90 81 36 5 7 32 33 27 29 47 60 66 62 72 61 56 23 38 35 38 38 43 45 49 42 43 40 42 26 35 40 39 28 29 21 34 35 36 34 37
94 90 96 97 95 96 95 82 59 32 5 11 33 36 35 36 40 56 54 74 62 41 61 32 36 36 26 29 38 43 45 42 44 50 48 41 43 42 32 32 34 34 35 39 45 40 58
92 92 96 96 95 92 87 70 48 16 3 13 36 40 34 41 54 63 65 51 32 46 28 38 42 40 38 32 35 42 49 49 50 60 35 34 32 41 43 41 40 39 38 46 39 65 31
85 96 96 94 95 94 88 82 47 13 3 15 36 40 42 30 53 68 44 20 30 26 38 47 46 38 26 37 29 25 40 47 51 56 53 56 40 37 42 40 41 41 40 38 29 23 17
94 95 94 94 94 93 87 74 31 13 6 22 42 43 37 26 56 60 25 34 36 39 53 52 38 25 24 37 34 25 44 57 54 52 65 63 43 39 35 36 35 38 45 35 44 33 44
92 93 92 94 93 85 69 59 27 8 17 33 45 42 38 32 54 33 24 33 56 55 54 48 31 42 32 46 32 32 33 52 54 49 52 63 65 44 44 34 36 37 36 46 41 57 47
92 88 93 94 94 82 53 26 8 8 21 36 46 32 31 43 38 28 28 52 64 49 54 52 48 48 58 60 62 53 53 53 48 49 46 52 64 40 40 30 46 41 39 37 45 59 57
88 90 93 94 90 81 64 26 8 6 22 34 41 26 26 40 28 50 50 53 53 51 45 61 62 60 68 66 60 63 67 54 39 36 41 42 53 65 41 32 37 45 49 59 84 67 58
87 90 93 94 88 78 64 31 7 6 22 33 36 34 21 29 23 40 45 55 50 46 51 53 58 52 51 66 51 62 67 50 44 33 34 37 40 45 23 25 26 32 25 23 27 34 59
89 91 92 91 88 80 52 18 9 7 21 27 29 30 28 38 41 32 41 51 50 48 49 44 49 41 43 52 50 55 47 51 41 36 45 30 52 51 52 38 32 39 36 36 44 66 49
90 91 90 90 89 81 66 14 8 14 22 22 41 46 49 28 40 42 41 45 47 47 47 45 46 42 39 42 39 45 43 36 37 48 41 41 52 45 41 38 39 43 44 46 58 57 78
92 89 89 90 90 72 52 16 10 16 19 41 34 40 49 49 47 38 49 56 48 51 42 52 43 40 41 32 29 28 46 53 46 44 45 45 55 53 53 33 32 45 53 61 56 64 56
91 88 90 92 92 84 52 20 13 11 18 60 81 56 32 56 47 34 47 52 51 46 55 44 42 41 45 45 49 46 46 46 46 50 54 57 60 54 47 34 36 53 77 70 74 71 77
89 87 91 92 88 79 66 38 26 16 15 40 63 44 26 46 42 47 55 52 49 52 47 52 48 47 50 53 52 50 56 60 62 59 56 58 65 52 58 41 53 86 66 83 75 80 85
90 87 91 90 87 85 77 69 34 28 22 23 51 50 50 51 49 56 54 59 56 55 56 51 53 52 58 57 43 38 37 39 44 48 60 57 66 58 63 45 31 71 64 74 82 73 78
90 86 89 89 93 82 84 83 45 36 30 29 55 46 66 65 53 48 57 54 50 54 55 56 53 60 57 52 50 47 42 43 47 40 48 60 67 79 51 64 58 71 57 45 57 80 64
90 88 92 95 93 84 92 87 56 45 42 30 68 49 54 68 63 53 48 53 62 65 53 63 60 62 62 55 51 52 51 61 53 52 42 46 60 71 50 54 42 76 54 43 87 73 60
91 88 88 92 91 87 91 83 60 52 47 31 72 56 53 80 71 68 62 65 69 62 48 61 61 63 61 57 56 60 61 50 58 51 66 69 65 56 67 74 66 68 47 64 70 60 56
91 90 88 85 90 90 93 91 63 56 45 43 68 58 56 76 75 82 81 76 71 61 60 77 69 73 73 70 69 62 55 50 60 67 64 70 77 78 74 66 75 57 52 66 59 64 64
Wind_Speed
7 9 10 11 11 12 14 14 15 15 16 16 17 17 16 15 16 15 15 14 14 14 13 8 5 2 1 2 3 3 2 3 3 1 4 1 1 1 2 1 2 5 1 3 4 5 6
7 9 11 11 12 13 14 15 16 16 17 17 18 18 17 17 16 15 15 14 13 13 9 4 2 1 0 2 2 3 1 1 3 3 2 2 1 2 3 2 3 1 5 7 7 10 8
7 8 9 11 12 14 15 16 17 17 17 18 19 19 18 17 15 15 14 13 12 7 4 1 2 3 1 3 1 3 2 3 6 2 2 3 2 2 3 2 1 2 6 6 11 6 5
5 6 9 11 13 14 15 16 17 17 18 19 19 19 18 17 16 15 13 11 7 4 3 2 2 1 3 2 4 3 3 3 5 6 6 3 3 3 1 1 1 3 3 5 4 6 1
4 5 7 9 11 13 15 17 18 19 19 19 19 19 17 16 15 13 11 9 3 3 3 3 1 1 4 3 2 2 2 1 3 4 5 3 2 1 2 3 4 3 6 6 4 6 4
4 5 7 9 11 13 15 17 18 19 20 20 19 16 15 15 13 12 9 4 3 3 3 3 3 2 1 1 1 2 2 3 2 1 2 1 1 3 3 5 6 4 5 5 8 2 6
2 5 7 9 11 13 14 15 17 18 20 21 17 15 14 12 13 9 6 1 1 2 8 4 2 1 0 2 1 3 1 2 0 1 2 2 4 7 3 5 3 4 7 11 13 7 6
1 3 6 7 10 12 14 13 14 15 17 18 16 16 14 10 6 12 6 5 3 1 2 1 2 2 1 1 1 1 1 2 2 2 1 3 6 2 1 2 5 6 8 13 11 8 7
1 3 4 7 9 11 13 15 15 14 14 15 13 16 14 9 3 6 12 5 2 2 1 2 2 2 2 2 0 2 1 0 1 3 3 5 2 6 3 5 7 9 12 12 11 5 9
0 3 4 6 9 11 13 14 15 15 14 12 10 13 12 5 2 3 4 5 1 2 2 4 2 2 1 2 0 3 2 3 1 3 3 7 1 5 4 6 8 14 10 12 7 5 8
1 2 5 8 10 11 12 14 16 16 13 12 8 12 8 9 2 3 3 4 2 2 1 2 2 2 2 2 4 3 2 1 3 2 2 3 3 5 9 9 10 5 3 4 5 10 10
1 3 5 7 9 12 13 14 15 15 13 11 6 9 7 2 5 4 3 3 2 1 2 1 2 5 3 3 3 3 1 1 0 3 5 13 2 5 7 4 9 2 3 3 3 6 8
3 2 5 7 9 11 13 14 16 15 12 9 3 4 10 6 2 6 1 2 1 2 1 2 2 4 4 4 3 6 4 7 5 6 2 5 8 2 3 6 2 6 7 4 6 6 9
3 3 6 8 9 11 13 15 15 13 11 7 1 1 4 12 5 3 1 2 3 1 1 1 2 5 2 7 3 5 1 2 11 6 5 5 3 1 2 2 5 6 5 7 12 14 17
1 4 6 8 10 12 14 15 14 13 10 4 2 1 2 14 3 0 2 1 1 1 1 4 3 1 2 1 4 2 5 4 7 10 4 6 6 3 4 5 4 1 7 8 13 19 16
2 3 5 8 10 11 13 15 15 11 9 1 3 2 3 11 2 0 1 2 2 2 3 1 2 3 1 5 5 5 2 3 4 8 4 4 10 1 6 7 4 5 10 9 8 16 24
3 2 4 7 11 12 13 14 13 11 8 0 2 1 5 4 2 2 1 3 3 3 3 4 0 0 2 2 2 2 3 4 6 7 4 7 3 7 12 4 11 14 14 14 13 8 13
3 1 4 8 10 13 15 14 12 8 4 2 2 2 8 2 1 2 2 3 3 3 7 4 3 3 1 2 2 2 0 3 6 7 5 4 5 8 21 17 8 7 7 10 5 8 9
4 2 4 7 10 13 15 16 12 7 3 3 2 1 5 1 2 3 3 4 4 3 5 3 3 6 2 1 3 1 2 6 7 9 6 5 2 8 13 4 2 8 23 16 15 14 21
5 3 4 7 11 13 15 16 13 5 1 3 2 1 3 4 2 4 5 3 4 4 3 5 4 3 2 2 2 0 1 3 8 7 2 3 2 7 10 16 18 19 19 18 15 11 18
5 3 4 7 10 13 16 18 13 2 3 3 3 2 2 2 3 5 3 3 4 2 2 3 4 5 2 2 2 2 2 4 6 2 3 4 4 4 13 14 16 16 16 12 11 12 10
6 4 5 7 10 12 15 19 17 2 4 6 2 3 3 3 2 4 2 2 4 4 1 2 3 2 2 2 2 3 2 2 4 1 2 2 3 7 11 10 12 13 7 7 7 10 8
8 5 6 8 11 14 17 19 21 11 3 5 3 3 1 1 2 2 2 4 4 5 4 5 2 1 3 2 4 8 9 11 10 6 3 2 2 5 7 10 15 6 7 5 2 6 8
10 8 7 8 11 14 16 18 23 23 12 10 5 4 2 3 2 2 6 3 6 3 3 3 2 0 2 7 10 6 5 7 8 10 10 4 5 4 7 8 7 6 8 4 7 2 8
11 9 8 8 11 14 17 19 20 23 20 21 8 4 2 4 5 6 7 6 5 3 3 2 2 3 6 4 3 3 2 4 3 3 8 11 3 4 4 7 12 7 5 6 6 5 9
13 10 8 9 10 14 14 16 18 19 16 23 19 10 5 6 3 6 5 2 3 3 3 2 1 4 2 2 1 2 2 1 2 2 2 6 6 5 9 10 11 5 11 13 6 7 13
15 13 12 11 10 13 13 14 15 15 16 21 19 10 7 4 2 1 2 3 3 3 3 2 2 1 2 1 1 1 2 2 3 3 3 4 3 8 8 9 6 6 14 13 5 8 20
16 13 12 11 10 11 12 13 14 14 15 15 14 17 5 3 3 2 2 3 3 1 2 2 2 2 1 0 1 1 3 1 4 3 4 3 4 4 2 5 6 12 4 6 7 13 17
16 14 13 11 11 11 10 11 12 13 13 10 8 12 13 9 4 4 6 4 4 2 2 1 2 1 2 1 1 2 3 3 4 3 2 2 2 3 3 4 4 8 8 1 10 15 14
Wind_Direction
23 17 14 10 7 9 4 1 357 355 351 349 346 343 340 338 334 332 331 328 330 331 329 328 336 345 84 152 91 156 125 38 30 77 55 73 135 165 268 183 184 236 241 231 220 214 240
18 10 6 3 4 4 1 359 354 353 350 347 344 342 339 334 331 331 331 329 329 333 334 339 358 54 54 182 50 144 102 75 55 74 77 33 118 137 129 200 232 199 263 258 253 242 240
10 10 4 2 1 359 359 357 353 349 347 345 342 338 335 332 332 327 328 330 332 345 354 10 119 114 110 77 76 101 81 66 51 57 102 61 86 256 145 186 44 305 294 257 228 228 242
341 10 4 2 359 359 356 352 349 347 345 344 341 341 344 344 341 335 332 333 341 13 26 67 90 90 86 39 113 89 81 73 64 66 82 65 68 94 312 102 200 250 251 269 141 175 143
28 25 14 5 3 358 353 349 347 346 344 344 344 346 348 347 344 341 334 333 33 54 70 76 39 304 79 63 51 37 63 98 83 63 66 70 68 63 168 232 242 216 265 244 281 194 158
57 23 9 8 2 355 352 350 348 346 343 343 347 353 354 354 357 345 342 17 83 69 42 75 78 168 82 67 351 49 78 98 93 113 144 105 120 212 184 213 265 274 251 243 264 151 218
42 13 19 9 358 352 352 351 348 347 345 344 351 357 358 1 13 2 360 35 225 140 40 38 328 17 233 324 49 60 72 151 60 210 250 57 248 240 279 251 309 287 278 275 274 267 269
92 53 16 5 355 351 347 348 350 352 349 351 355 359 356 359 358 10 29 65 49 356 88 40 341 310 277 295 163 86 165 224 192 170 180 217 250 298 148 154 218 236 267 271 280 280 240
102 61 16 359 358 350 346 345 347 352 357 356 0 1 357 350 8 36 66 64 52 90 71 48 6 358 351 291 82 47 302 325 268 194 208 244 109 140 215 220 234 242 248 274 277 312 242
77 11 5 4 356 352 350 347 346 349 354 357 1 4 3 8 73 51 57 11 37 163 152 21 20 51 354 350 72 16 24 337 255 308 294 271 94 216 214 249 222 276 232 256 260 282 279
121 335 3 357 353 353 353 347 345 348 354 353 1 4 9 39 103 61 326 341 161 235 318 24 24 343 347 2 335 47 6 313 282 294 252 287 229 221 236 242 200 271 159 227 247 259 289
195 339 358 354 354 352 351 349 347 347 351 348 5 13 19 30 67 16 344 128 189 211 236 82 324 359 4 35 26 314 126 171 250 268 238 262 301 247 248 275 224 107 232 245 238 253 250
271 327 347 354 356 355 352 351 349 348 347 347 359 23 40 51 345 344 45 201 263 199 36 21 338 357 352 328 0 14 36 44 18 329 298 301 247 264 236 268 211 223 239 254 237 212 253
290 341 343 357 360 356 353 350 350 346 342 341 278 355 9 17 343 341 156 232 225 161 210 20 320 314 328 6 58 353 48 80 36 357 299 317 298 346 102 335 337 226 253 257 267 274 283
228 329 345 351 358 358 356 350 351 347 342 341 189 198 32 345 343 42 231 232 358 164 9 323 287 236 137 88 352 11 60 38 32 13 328 326 250 345 9 331 303 122 243 321 281 272 268
202 321 358 348 355 1 359 354 353 349 345 9 166 148 356 347 1 132 123 127 132 42 337 267 290 7 288 358 335 350 119 13 3 16 336 27 290 172 358 334 187 348 332 286 256 272 267
195 316 358 353 354 359 0 356 354 353 348 304 124 180 350 351 67 42 150 111 123 75 2 357 325 277 68 6 313 298 64 52 10 6 22 349 243 261 327 321 325 318 305 293 297 273 279
191 92 8 356 5 358 357 359 353 356 1 154 123 230 351 118 43 38 93 63 7 18 28 47 79 67 63 32 292 231 154 63 30 8 353 8 300 291 298 308 325 296 67 25 346 318 307
169 92 13 9 8 3 2 360 357 355 7 146 120 352 356 36 190 122 119 89 60 47 38 39 80 36 41 100 291 9 96 161 15 358 355 357 242 303 298 138 91 349 313 312 305 273 267
152 110 22 21 19 9 6 5 1 354 51 143 138 199 54 57 26 124 143 135 121 46 78 70 101 84 90 123 20 303 288 109 335 333 90 328 283 269 283 292 299 301 310 308 301 289 291
144 106 55 36 32 23 13 20 10 23 124 128 16 100 33 97 61 100 89 113 139 145 84 68 102 86 93 188 260 204 202 317 329 45 71 11 276 311 285 292 296 300 307 337 350 334 291
152 119 75 50 43 36 25 25 27 45 128 86 123 149 93 85 96 111 28 129 155 130 126 109 127 129 167 199 243 268 243 233 256 113 320 320 262 318 301 304 314 318 2 346 4 352 333
149 123 85 66 51 41 36 31 39 41 143 103 109 93 113 90 120 151 135 145 127 143 79 91 141 171 195 190 265 275 266 263 252 255 251 234 260 310 275 322 314 220 8 349 356 21 329
146 122 100 76 59 55 44 42 48 49 59 109 112 116 124 113 109 109 134 110 125 82 112 110 130 5 45 316 289 258 236 244 236 234 224 219 216 263 288 296 297 88 43 334 332 84 16
142 127 114 85 70 63 55 47 51 53 59 87 92 95 112 109 120 114 125 114 107 68 95 121 88 19 324 300 296 306 180 186 158 182 196 216 250 295 271 303 288 192 43 342 343 275 15
144 131 126 97 77 68 66 58 57 54 59 72 59 73 88 119 166 124 122 146 141 116 119 115 70 344 324 280 274 276 266 345 257 227 151 188 247 269 296 287 288 53 336 315 299 248 6
153 152 124 110 89 78 71 64 59 53 60 71 52 60 84 100 91 115 124 127 117 114 110 116 2 59 321 328 232 266 264 323 262 260 278 282 245 253 278 291 284 6 330 308 262 324 338
154 146 136 120 102 88 75 71 67 59 58 77 58 47 86 91 92 61 100 123 125 142 91 88 186 126 89 301 338 20 267 271 270 306 311 284 294 273 277 285 276 11 345 348 341 322 321
151 147 132 133 109 92 81 75 69 63 59 70 69 57 65 79 92 88 78 84 63 105 113 71 66 115 55 18 184 300 270 273 291 268 68 231 350 320 293 337 359 332 303 93 328 319 317